Location: Kellogg
(38.0159°N, 90.0546°W)
Time: 21:04:15
(UTC+00:00)

Transit 4A - Pass Details

Date: 19 September 2024
Orbit: 865 x 978 km, 66.8° (Epoch: 11 October)

Event Time Altitude Azimuth Distance (km) Brightness Sun altitude
Rises 16:00:32 0° 339° (NNW) 3,606 10.6 44.9°
Reaches altitude 10° 16:03:19 10° 348° (NNW) 2,675 10.0 45.2°
Maximum altitude 16:08:59 35° 53° (NE) 1,508 9.5 45.9°
Drops below altitude 10° 16:14:43 10° 118° (ESE) 2,713 11.2 46.6°
Sets 16:17:32 0° 127° (SE) 3,663 11.7 47.0°
